Time,TemperatureF,DewpointF,PressureIn,WindDirection,WindDirectionDegrees,WindSpeedMPH,WindSpeedGustMPH,Humidity,HourlyPrecipIn,Conditions,Clouds,dailyrainin,SoftwareType,DateUTC
2013-02-05 00:00:00,26.5,10.4,29.91,WNW,286,3.0,4.0,50,0.00,,---,0.00,VWS V14.01,2013-02-05 05:00:00,
2013-02-05 00:05:00,26.5,9.9,29.91,WNW,286,3.0,4.0,49,0.00,,---,0.00,VWS V14.01,2013-02-05 05:05:00,
2013-02-05 00:10:00,26.5,10.8,29.91,WNW,286,4.0,5.0,51,0.00,,---,0.00,VWS V14.01,2013-02-05 05:10:00,
2013-02-05 00:15:00,26.4,10.3,29.91,WNW,286,1.0,3.0,50,0.00,,---,0.00,VWS V14.01,2013-02-05 05:15:00,
2013-02-05 00:20:00,26.3,9.8,29.91,WNW,286,1.0,4.0,49,0.00,,---,0.00,VWS V14.01,2013-02-05 05:20:00,
2013-02-05 00:25:00,26.3,10.6,29.91,WNW,286,3.0,3.0,51,0.00,,---,0.00,VWS V14.01,2013-02-05 05:25:00,
2013-02-05 00:30:00,26.2,10.1,29.91,WNW,286,0.0,0.0,50,0.00,,---,0.00,VWS V14.01,2013-02-05 05:30:00,
2013-02-05 00:35:00,26.2,10.1,29.91,WNW,286,0.0,3.0,50,0.00,,---,0.00,VWS V14.01,2013-02-05 05:35:00,
2013-02-05 00:40:00,26.2,9.7,29.91,WNW,286,0.0,0.0,49,0.00,,---,0.00,VWS V14.01,2013-02-05 05:40:00,
2013-02-05 00:45:00,26.1,10.0,29.91,WNW,286,0.0,2.0,50,0.00,,---,0.00,VWS V14.01,2013-02-05 05:45:00,
2013-02-05 00:50:00,26.1,10.5,29.91,WNW,286,2.0,2.0,51,0.00,,---,0.00,VWS V14.01,2013-02-05 05:50:00,
2013-02-05 00:55:00,26.1,10.5,29.91,WNW,286,2.0,2.0,51,0.00,,---,0.00,VWS V14.01,2013-02-05 05:55:00,
2013-02-05 01:00:00,26.1,11.7,29.91,WNW,286,1.0,2.0,54,0.00,,---,0.00,VWS V14.01,2013-02-05 06:00:00,
2013-02-05 01:05:00,26.1,11.7,29.91,WNW,286,1.0,2.0,54,0.00,,---,0.00,VWS V14.01,2013-02-05 06:05:00,
2013-02-05 01:10:00,26.0,10.8,29.91,WNW,286,1.0,1.0,52,0.00,,---,0.00,VWS V14.01,2013-02-05 06:10:00,
2013-02-05 01:15:00,26.0,11.2,29.91,WNW,286,1.0,2.0,53,0.00,,---,0.00,VWS V14.01,2013-02-05 06:15:00,
2013-02-05 01:20:00,26.0,11.2,29.91,WNW,286,0.0,2.0,53,0.00,,---,0.00,VWS V14.01,2013-02-05 06:20:00,
2013-02-05 01:25:00,26.0,11.2,29.91,WNW,286,1.0,2.0,53,0.00,,---,0.00,VWS V14.01,2013-02-05 06:25:00,
2013-02-05 01:30:00,26.0,11.2,29.91,WNW,286,0.0,1.0,53,0.00,,---,0.00,VWS V14.01,2013-02-05 06:30:00,
2013-02-05 01:35:00,26.0,10.8,29.91,WNW,286,2.0,3.0,52,0.00,,---,0.00,VWS V14.01,2013-02-05 06:35:00,
2013-02-05 01:40:00,26.0,10.8,29.91,WNW,286,2.0,2.0,52,0.00,,---,0.00,VWS V14.01,2013-02-05 06:40:00,
2013-02-05 01:45:00,26.0,10.8,29.91,WNW,286,2.0,2.0,52,0.00,,---,0.00,VWS V14.01,2013-02-05 06:45:00,
2013-02-05 01:50:00,26.0,10.8,29.91,WNW,286,0.0,1.0,52,0.00,,---,0.00,VWS V14.01,2013-02-05 06:50:00,
2013-02-05 01:55:00,26.0,10.8,29.91,WNW,286,2.0,3.0,52,0.00,,---,0.00,VWS V14.01,2013-02-05 06:55:00,
2013-02-05 02:00:00,26.0,10.8,29.91,WNW,286,2.0,2.0,52,0.00,,---,0.00,VWS V14.01,2013-02-05 07:00:00,
2013-02-05 02:05:00,25.9,11.1,29.91,WNW,286,2.0,2.0,53,0.00,,---,0.00,VWS V14.01,2013-02-05 07:05:00,
2013-02-05 02:10:00,25.9,11.1,29.91,WNW,286,2.0,2.0,53,0.00,,---,0.00,VWS V14.01,2013-02-05 07:10:00,
2013-02-05 02:15:00,25.9,11.1,29.91,WNW,286,2.0,2.0,53,0.00,,---,0.00,VWS V14.01,2013-02-05 07:15:00,
2013-02-05 02:20:00,25.9,11.1,29.91,WNW,286,2.0,3.0,53,0.00,,---,0.00,VWS V14.01,2013-02-05 07:20:00,
2013-02-05 02:25:00,25.8,11.0,29.91,WNW,286,1.0,2.0,53,0.00,,---,0.00,VWS V14.01,2013-02-05 07:25:00,
2013-02-05 02:30:00,25.8,11.9,29.91,WNW,286,3.0,3.0,55,0.00,,---,0.00,VWS V14.01,2013-02-05 07:30:00,
2013-02-05 02:35:00,25.8,11.0,29.91,WNW,286,1.0,1.0,53,0.00,,---,0.00,VWS V14.01,2013-02-05 07:35:00,
2013-02-05 02:40:00,25.8,11.5,29.91,WNW,286,0.0,0.0,54,0.00,,---,0.00,VWS V14.01,2013-02-05 07:40:00,
2013-02-05 02:45:00,25.8,11.5,29.90,WNW,286,0.0,2.0,54,0.00,,---,0.00,VWS V14.01,2013-02-05 07:45:00,
2013-02-05 02:50:00,25.8,11.5,29.90,WNW,286,0.0,0.0,54,0.00,,---,0.00,VWS V14.01,2013-02-05 07:50:00,
2013-02-05 02:55:00,25.9,10.7,29.91,WNW,286,0.0,0.0,52,0.00,,---,0.00,VWS V14.01,2013-02-05 07:55:00,
2013-02-05 03:00:00,25.9,10.7,29.90,WNW,286,0.0,0.0,52,0.00,,---,0.00,VWS V14.01,2013-02-05 08:00:00,
2013-02-05 03:05:00,26.0,11.2,29.91,WNW,286,0.0,0.0,53,0.00,,---,0.00,VWS V14.01,2013-02-05 08:05:00,
2013-02-05 03:10:00,25.9,11.1,29.91,WNW,286,0.0,0.0,53,0.00,,---,0.00,VWS V14.01,2013-02-05 08:10:00,
2013-02-05 03:15:00,25.9,11.6,29.91,WNW,286,0.0,0.0,54,0.00,,---,0.00,VWS V14.01,2013-02-05 08:15:00,
2013-02-05 03:20:00,25.9,11.6,29.91,WNW,286,0.0,0.0,54,0.00,,---,0.00,VWS V14.01,2013-02-05 08:20:00,
2013-02-05 03:25:00,26.1,13.4,29.91,WNW,286,0.0,0.0,58,0.00,,---,0.00,VWS V14.01,2013-02-05 08:25:00,
2013-02-05 03:30:00,26.1,13.8,29.90,WNW,286,0.0,0.0,59,0.00,,---,0.00,VWS V14.01,2013-02-05 08:30:00,
2013-02-05 03:35:00,26.0,12.5,29.90,WNW,286,0.0,0.0,56,0.00,,---,0.00,VWS V14.01,2013-02-05 08:35:00,
2013-02-05 03:40:00,26.1,13.0,29.91,WNW,286,0.0,0.0,57,0.00,,---,0.00,VWS V14.01,2013-02-05 08:40:00,
2013-02-05 03:45:00,26.0,12.9,29.91,WNW,286,0.0,0.0,57,0.00,,---,0.00,VWS V14.01,2013-02-05 08:45:00,
2013-02-05 03:50:00,26.0,13.6,29.91,WNW,286,0.0,0.0,59,0.00,,---,0.00,VWS V14.01,2013-02-05 08:50:00,
2013-02-05 03:55:00,26.0,14.4,29.91,WNW,286,0.0,0.0,61,0.00,,---,0.00,VWS V14.01,2013-02-05 08:55:00,
2013-02-05 04:00:00,25.9,14.3,29.91,WNW,286,0.0,0.0,61,0.00,,---,0.00,VWS V14.01,2013-02-05 09:00:00,
2013-02-05 04:05:00,25.8,13.9,29.91,WNW,286,0.0,0.0,60,0.00,,---,0.00,VWS V14.01,2013-02-05 09:05:00,
2013-02-05 04:10:00,25.8,13.9,29.91,WNW,286,0.0,0.0,60,0.00,,---,0.00,VWS V14.01,2013-02-05 09:10:00,
2013-02-05 04:15:00,25.8,14.2,29.91,WNW,286,0.0,0.0,61,0.00,,---,0.00,VWS V14.01,2013-02-05 09:15:00,
2013-02-05 04:20:00,25.7,14.1,29.91,WNW,286,0.0,0.0,61,0.00,,---,0.00,VWS V14.01,2013-02-05 09:20:00,
2013-02-05 04:25:00,25.8,13.9,29.91,WNW,286,0.0,0.0,60,0.00,,---,0.00,VWS V14.01,2013-02-05 09:25:00,
2013-02-05 04:30:00,25.8,15.0,29.91,WNW,286,0.0,1.0,63,0.00,,---,0.00,VWS V14.01,2013-02-05 09:30:00,
2013-02-05 04:35:00,26.0,14.8,29.91,WNW,286,0.0,0.0,62,0.00,,---,0.00,VWS V14.01,2013-02-05 09:35:00,
2013-02-05 04:40:00,26.0,14.4,29.91,WNW,286,0.0,0.0,61,0.00,,---,0.00,VWS V14.01,2013-02-05 09:40:00,
2013-02-05 04:45:00,26.0,14.0,29.91,WNW,286,0.0,1.0,60,0.00,,---,0.00,VWS V14.01,2013-02-05 09:45:00,
2013-02-05 04:50:00,26.1,13.8,29.91,WNW,286,0.0,0.0,59,0.00,,---,0.00,VWS V14.01,2013-02-05 09:50:00,
2013-02-05 04:55:00,26.2,13.4,29.92,WNW,286,0.0,0.0,58,0.00,,---,0.00,VWS V14.01,2013-02-05 09:55:00,
2013-02-05 05:00:00,26.2,13.4,29.91,WNW,286,0.0,0.0,58,0.00,,---,0.00,VWS V14.01,2013-02-05 10:00:00,
2013-02-05 05:05:00,26.2,13.1,29.91,WNW,286,1.0,2.0,57,0.00,,---,0.00,VWS V14.01,2013-02-05 10:05:00,
2013-02-05 05:10:00,26.2,14.2,29.91,WNW,286,0.0,0.0,60,0.00,,---,0.00,VWS V14.01,2013-02-05 10:10:00,
2013-02-05 05:15:00,26.2,15.0,29.90,WNW,286,0.0,0.0,62,0.00,,---,0.00,VWS V14.01,2013-02-05 10:15:00,
2013-02-05 05:20:00,26.0,14.8,29.90,WNW,286,1.0,1.0,62,0.00,,---,0.00,VWS V14.01,2013-02-05 10:20:00,
2013-02-05 05:25:00,25.9,14.7,29.90,WNW,286,3.0,3.0,62,0.00,,---,0.00,VWS V14.01,2013-02-05 10:25:00,
2013-02-05 05:30:00,25.7,14.9,29.91,WNW,286,0.0,1.0,63,0.00,,---,0.00,VWS V14.01,2013-02-05 10:30:00,
2013-02-05 05:35:00,25.7,15.2,29.90,WNW,286,0.0,0.0,64,0.00,,---,0.00,VWS V14.01,2013-02-05 10:35:00,
2013-02-05 05:40:00,25.6,15.1,29.91,WNW,286,0.0,0.0,64,0.00,,---,0.00,VWS V14.01,2013-02-05 10:40:00,
2013-02-05 05:45:00,25.6,15.1,29.91,WNW,286,0.0,0.0,64,0.00,,---,0.00,VWS V14.01,2013-02-05 10:45:00,
2013-02-05 05:50:00,25.7,15.6,29.91,WNW,286,0.0,0.0,65,0.00,,---,0.00,VWS V14.01,2013-02-05 10:50:00,
2013-02-05 05:55:00,25.8,15.7,29.91,WNW,286,0.0,0.0,65,0.00,,---,0.00,VWS V14.01,2013-02-05 10:55:00,
2013-02-05 06:00:00,25.8,15.3,29.91,WNW,286,1.0,1.0,64,0.00,,---,0.00,VWS V14.01,2013-02-05 11:00:00,
2013-02-05 06:05:00,25.9,15.8,29.91,WNW,286,0.0,0.0,65,0.00,,---,0.00,VWS V14.01,2013-02-05 11:05:00,
2013-02-05 06:10:00,25.9,15.8,29.91,WNW,286,0.0,0.0,65,0.00,,---,0.00,VWS V14.01,2013-02-05 11:10:00,
2013-02-05 06:15:00,25.9,16.1,29.91,WNW,286,3.0,3.0,66,0.00,,---,0.00,VWS V14.01,2013-02-05 11:15:00,
2013-02-05 06:20:00,25.9,16.5,29.91,WNW,286,0.0,2.0,67,0.00,,---,0.00,VWS V14.01,2013-02-05 11:20:00,
2013-02-05 06:25:00,25.9,16.5,29.91,WNW,286,1.0,4.0,67,0.00,,---,0.00,VWS V14.01,2013-02-05 11:25:00,
2013-02-05 06:30:00,25.8,16.7,29.91,WNW,286,1.0,3.0,68,0.00,,---,0.00,VWS V14.01,2013-02-05 11:30:00,
2013-02-05 06:35:00,25.8,17.0,29.92,WNW,286,3.0,3.0,69,0.00,,---,0.00,VWS V14.01,2013-02-05 11:35:00,
2013-02-05 06:40:00,25.8,17.0,29.91,WNW,286,1.0,2.0,69,0.00,,---,0.00,VWS V14.01,2013-02-05 11:40:00,
2013-02-05 06:45:00,25.9,17.5,29.91,WNW,286,3.0,6.0,70,0.00,,---,0.00,VWS V14.01,2013-02-05 11:45:00,
2013-02-05 06:50:00,25.9,17.5,29.91,WNW,286,1.0,3.0,70,0.00,,---,0.00,VWS V14.01,2013-02-05 11:50:00,
2013-02-05 06:55:00,25.9,17.5,29.91,WNW,286,0.0,1.0,70,0.00,,---,0.00,VWS V14.01,2013-02-05 11:55:00,
2013-02-05 07:00:00,25.9,17.5,29.91,WNW,286,0.0,0.0,70,0.00,,---,0.00,VWS V14.01,2013-02-05 12:00:00,
2013-02-05 07:05:00,25.9,17.5,29.91,WNW,286,2.0,3.0,70,0.00,,---,0.00,VWS V14.01,2013-02-05 12:05:00,
2013-02-05 07:10:00,26.0,17.9,29.91,WNW,286,2.0,4.0,71,0.00,,---,0.00,VWS V14.01,2013-02-05 12:10:00,
2013-02-05 07:15:00,26.1,18.0,29.92,WNW,286,1.0,4.0,71,0.00,,---,0.00,VWS V14.01,2013-02-05 12:15:00,
2013-02-05 07:20:00,26.1,18.0,29.92,WNW,286,4.0,4.0,71,0.00,,---,0.00,VWS V14.01,2013-02-05 12:20:00,
2013-02-05 07:25:00,26.1,18.3,29.92,WNW,286,0.0,1.0,72,0.00,,---,0.00,VWS V14.01,2013-02-05 12:25:00,
2013-02-05 07:30:00,26.1,18.3,29.93,WNW,286,1.0,2.0,72,0.00,,---,0.00,VWS V14.01,2013-02-05 12:30:00,
2013-02-05 07:35:00,26.1,18.0,29.93,WNW,286,0.0,0.0,71,0.00,,---,0.00,VWS V14.01,2013-02-05 12:35:00,
2013-02-05 07:40:00,26.0,18.2,29.93,WNW,286,0.0,0.0,72,0.00,,---,0.00,VWS V14.01,2013-02-05 12:40:00,
2013-02-05 07:45:00,26.0,18.2,29.92,WNW,286,0.0,0.0,72,0.00,,---,0.00,VWS V14.01,2013-02-05 12:45:00,
2013-02-05 07:50:00,26.1,18.6,29.92,WNW,286,0.0,3.0,73,0.00,,---,0.00,VWS V14.01,2013-02-05 12:50:00,
2013-02-05 07:55:00,26.2,18.7,29.93,WNW,286,2.0,3.0,73,0.00,,---,0.00,VWS V14.01,2013-02-05 12:55:00,
2013-02-05 08:00:00,26.3,19.1,29.93,WNW,286,2.0,3.0,74,0.00,,---,0.00,VWS V14.01,2013-02-05 13:00:00,
2013-02-05 08:05:00,26.3,19.1,29.92,WNW,286,0.0,1.0,74,0.00,,---,0.00,VWS V14.01,2013-02-05 13:05:00,
2013-02-05 08:10:00,26.4,19.6,29.93,WNW,286,1.0,2.0,75,0.00,,---,0.00,VWS V14.01,2013-02-05 13:10:00,
2013-02-05 08:15:00,26.5,19.7,29.93,WNW,286,0.0,0.0,75,0.00,,---,0.00,VWS V14.01,2013-02-05 13:15:00,
2013-02-05 08:20:00,26.5,19.7,29.94,WNW,286,0.0,0.0,75,0.00,,---,0.00,VWS V14.01,2013-02-05 13:20:00,
2013-02-05 08:25:00,26.6,19.8,29.93,WNW,286,3.0,3.0,75,0.00,,---,0.00,VWS V14.01,2013-02-05 13:25:00,
2013-02-05 08:30:00,26.6,19.8,29.93,WNW,286,0.0,0.0,75,0.00,,---,0.00,VWS V14.01,2013-02-05 13:30:00,
2013-02-05 08:35:00,26.6,20.1,29.94,WNW,286,0.0,0.0,76,0.00,,---,0.00,VWS V14.01,2013-02-05 13:35:00,
2013-02-05 08:40:00,26.6,20.1,29.94,WNW,286,1.0,1.0,76,0.00,,---,0.00,VWS V14.01,2013-02-05 13:40:00,
2013-02-05 08:45:00,26.6,20.4,29.94,WNW,286,0.0,2.0,77,0.00,,---,0.00,VWS V14.01,2013-02-05 13:45:00,
2013-02-05 08:50:00,26.5,20.9,29.94,WNW,287,0.0,0.0,79,0.00,,---,0.00,VWS V14.01,2013-02-05 13:50:00,
2013-02-05 08:54:00,26.5,21.2,29.94,WNW,286,0.0,1.0,80,0.00,,---,0.00,VWS V14.01,2013-02-05 13:54:00,
2013-02-05 08:59:00,26.3,21.0,29.94,WNW,288,0.0,3.0,80,0.00,,---,0.00,VWS V14.01,2013-02-05 13:59:00,
2013-02-05 09:04:00,26.1,21.1,29.94,WNW,288,1.0,1.0,81,0.00,,---,0.00,VWS V14.01,2013-02-05 14:04:00,
2013-02-05 09:09:00,26.0,21.0,29.95,WNW,288,0.0,1.0,81,0.00,,---,0.00,VWS V14.01,2013-02-05 14:09:00,
2013-02-05 09:14:00,26.0,21.3,29.94,WNW,288,3.0,3.0,82,0.00,,---,0.00,VWS V14.01,2013-02-05 14:14:00,
2013-02-05 09:19:00,25.9,21.2,29.94,WNW,288,0.0,4.0,82,0.00,,---,0.00,VWS V14.01,2013-02-05 14:19:00,
2013-02-05 09:24:00,25.8,21.1,29.94,WNW,289,1.0,2.0,82,0.00,,---,0.00,VWS V14.01,2013-02-05 14:24:00,
2013-02-05 09:29:00,25.7,21.0,29.95,WNW,289,0.0,0.0,82,0.00,,---,0.00,VWS V14.01,2013-02-05 14:29:00,
2013-02-05 09:34:00,25.7,21.0,29.95,WNW,289,1.0,2.0,82,0.00,,---,0.00,VWS V14.01,2013-02-05 14:34:00,
2013-02-05 09:39:00,25.6,20.9,29.95,WNW,290,2.0,3.0,82,0.00,,---,0.00,VWS V14.01,2013-02-05 14:39:00,
2013-02-05 09:44:00,25.5,20.8,29.96,WNW,300,3.0,5.0,82,0.00,,---,0.00,VWS V14.01,2013-02-05 14:44:00,
2013-02-05 09:49:00,25.4,20.7,29.95,WNW,301,0.0,2.0,82,0.00,,---,0.00,VWS V14.01,2013-02-05 14:49:00,
2013-02-05 09:55:00,25.4,21.0,29.95,WNW,302,0.0,0.0,83,0.00,,---,0.00,VWS V14.01,2013-02-05 14:55:00,
2013-02-05 09:59:00,25.4,21.0,29.95,WNW,302,3.0,3.0,83,0.00,,---,0.00,VWS V14.01,2013-02-05 14:59:00,
2013-02-05 10:04:00,25.3,20.9,29.95,NW,304,1.0,4.0,83,0.00,,---,0.00,VWS V14.01,2013-02-05 15:04:00,
2013-02-05 10:09:00,25.3,20.9,29.95,NW,319,3.0,3.0,83,0.00,,---,0.00,VWS V14.01,2013-02-05 15:09:00,
2013-02-05 10:14:00,25.2,20.8,29.95,NNW,339,0.0,4.0,83,0.00,,---,0.00,VWS V14.01,2013-02-05 15:14:00,
2013-02-05 10:19:00,25.2,20.8,29.96,NNW,342,2.0,6.0,83,0.00,,---,0.00,VWS V14.01,2013-02-05 15:19:00,
2013-02-05 10:24:00,25.2,20.8,29.96,North,355,3.0,4.0,83,0.00,,---,0.00,VWS V14.01,2013-02-05 15:24:00,
2013-02-05 10:29:00,25.0,20.6,29.96,North,5,2.0,2.0,83,0.00,,---,0.00,VWS V14.01,2013-02-05 15:29:00,
2013-02-05 10:34:00,25.1,21.0,29.96,NNE,24,2.0,3.0,84,0.00,,---,0.00,VWS V14.01,2013-02-05 15:34:00,
2013-02-05 10:39:00,25.1,21.0,29.96,NNE,24,0.0,0.0,84,0.00,,---,0.00,VWS V14.01,2013-02-05 15:39:00,
2013-02-05 10:44:00,25.3,21.1,29.96,NNE,24,0.0,3.0,84,0.00,,---,0.00,VWS V14.01,2013-02-05 15:44:00,
2013-02-05 10:49:00,25.2,21.0,29.96,NNE,22,6.0,6.0,84,0.00,,---,0.00,VWS V14.01,2013-02-05 15:49:00,
2013-02-05 10:54:00,25.2,21.0,29.96,NNE,21,1.0,1.0,84,0.00,,---,0.00,VWS V14.01,2013-02-05 15:54:00,
2013-02-05 10:59:00,25.2,20.8,29.96,NNE,23,4.0,5.0,83,0.00,,---,0.00,VWS V14.01,2013-02-05 15:59:00,
2013-02-05 11:04:00,25.2,20.8,29.96,NNE,21,3.0,5.0,83,0.00,,---,0.00,VWS V14.01,2013-02-05 16:04:00,
2013-02-05 11:09:00,25.2,20.8,29.96,NNE,21,3.0,4.0,83,0.00,,---,0.00,VWS V14.01,2013-02-05 16:09:00,
2013-02-05 11:14:00,25.3,20.9,29.95,NNE,22,2.0,5.0,83,0.00,,---,0.00,VWS V14.01,2013-02-05 16:14:00,
2013-02-05 11:19:00,25.2,20.8,29.96,NNE,22,0.0,0.0,83,0.00,,---,0.00,VWS V14.01,2013-02-05 16:19:00,
2013-02-05 11:24:00,25.2,20.8,29.95,NNE,22,0.0,0.0,83,0.00,,---,0.00,VWS V14.01,2013-02-05 16:24:00,
2013-02-05 11:29:00,25.3,20.9,29.95,NNE,22,2.0,5.0,83,0.00,,---,0.00,VWS V14.01,2013-02-05 16:29:00,
2013-02-05 11:34:00,25.3,20.9,29.95,NNE,22,0.0,1.0,83,0.00,,---,0.00,VWS V14.01,2013-02-05 16:34:00,
2013-02-05 11:39:00,25.4,21.0,29.95,NNE,22,0.0,1.0,83,0.00,,---,0.00,VWS V14.01,2013-02-05 16:39:00,
2013-02-05 11:45:00,25.5,21.1,29.94,NNE,22,0.0,1.0,83,0.00,,---,0.00,VWS V14.01,2013-02-05 16:45:00,
2013-02-05 11:50:00,25.5,21.1,29.94,NNE,22,0.0,0.0,83,0.00,,---,0.00,VWS V14.01,2013-02-05 16:50:00,
2013-02-05 11:55:00,25.5,21.1,29.93,NNE,22,0.0,0.0,83,0.00,,---,0.00,VWS V14.01,2013-02-05 16:55:00,
2013-02-05 12:00:00,25.6,21.2,29.93,NNE,22,1.0,1.0,83,0.00,,---,0.00,VWS V14.01,2013-02-05 17:00:00,
2013-02-05 12:05:00,25.7,21.3,29.93,NNE,22,5.0,5.0,83,0.00,,---,0.00,VWS V14.01,2013-02-05 17:05:00,
2013-02-05 12:10:00,25.6,21.2,29.93,NNE,22,0.0,3.0,83,0.00,,---,0.00,VWS V14.01,2013-02-05 17:10:00,
2013-02-05 12:15:00,25.6,21.5,29.93,NNE,22,4.0,5.0,84,0.00,,---,0.00,VWS V14.01,2013-02-05 17:15:00,
2013-02-05 12:20:00,25.6,21.5,29.93,NNE,22,6.0,6.0,84,0.00,,---,0.00,VWS V14.01,2013-02-05 17:20:00,
2013-02-05 12:25:00,25.7,21.5,29.92,NNE,22,3.0,4.0,84,0.00,,---,0.00,VWS V14.01,2013-02-05 17:25:00,
2013-02-05 12:30:00,25.7,21.5,29.92,NNE,22,1.0,5.0,84,0.00,,---,0.00,VWS V14.01,2013-02-05 17:30:00,
2013-02-05 12:35:00,25.7,21.5,29.92,NNE,22,1.0,1.0,84,0.00,,---,0.00,VWS V14.01,2013-02-05 17:35:00,
2013-02-05 12:39:00,25.9,21.7,29.93,NNE,22,0.0,0.0,84,0.00,,---,0.00,VWS V14.01,2013-02-05 17:39:00,
2013-02-05 12:45:00,25.9,21.7,29.92,NNE,22,0.0,1.0,84,0.00,,---,0.00,VWS V14.01,2013-02-05 17:45:00,
2013-02-05 12:50:00,26.0,21.8,29.92,NNE,22,3.0,3.0,84,0.00,,---,0.00,VWS V14.01,2013-02-05 17:50:00,
2013-02-05 12:54:00,26.0,21.8,29.92,NE,37,1.0,5.0,84,0.00,,---,0.00,VWS V14.01,2013-02-05 17:54:00,
2013-02-05 13:00:00,25.9,21.7,29.92,NE,40,1.0,4.0,84,0.00,,---,0.00,VWS V14.01,2013-02-05 18:00:00,
2013-02-05 13:05:00,25.9,21.7,29.92,NE,40,4.0,4.0,84,0.00,,---,0.00,VWS V14.01,2013-02-05 18:05:00,
2013-02-05 13:10:00,26.0,21.8,29.91,NE,42,0.0,5.0,84,0.00,,---,0.00,VWS V14.01,2013-02-05 18:10:00,
2013-02-05 13:15:00,26.0,21.8,29.91,NE,42,1.0,1.0,84,0.00,,---,0.00,VWS V14.01,2013-02-05 18:15:00,
2013-02-05 13:20:00,26.1,21.9,29.91,NE,42,2.0,4.0,84,0.00,,---,0.00,VWS V14.01,2013-02-05 18:20:00,
2013-02-05 13:25:00,26.1,21.9,29.91,NE,43,2.0,2.0,84,0.00,,---,0.00,VWS V14.01,2013-02-05 18:25:00,
2013-02-05 13:30:00,26.2,22.0,29.91,NE,43,3.0,3.0,84,0.00,,---,0.00,VWS V14.01,2013-02-05 18:30:00,
2013-02-05 13:35:00,26.2,22.0,29.91,NE,43,1.0,1.0,84,0.00,,---,0.00,VWS V14.01,2013-02-05 18:35:00,
2013-02-05 13:40:00,26.3,22.1,29.90,NE,43,1.0,3.0,84,0.00,,---,0.00,VWS V14.01,2013-02-05 18:40:00,
2013-02-05 13:45:00,26.3,21.9,29.91,NE,42,3.0,3.0,83,0.00,,---,0.00,VWS V14.01,2013-02-05 18:45:00,
2013-02-05 13:50:00,26.3,21.9,29.91,NE,42,4.0,4.0,83,0.00,,---,0.00,VWS V14.01,2013-02-05 18:50:00,
2013-02-05 13:55:00,26.4,22.2,29.91,NE,42,0.0,4.0,84,0.00,,---,0.00,VWS V14.01,2013-02-05 18:55:00,
2013-02-05 14:00:00,26.5,22.3,29.91,NE,42,1.0,2.0,84,0.00,,---,0.00,VWS V14.01,2013-02-05 19:00:00,
2013-02-05 14:05:00,26.5,22.3,29.91,NE,40,2.0,4.0,84,0.00,,---,0.00,VWS V14.01,2013-02-05 19:05:00,
2013-02-05 14:10:00,26.5,22.3,29.91,NE,40,1.0,2.0,84,0.00,,---,0.00,VWS V14.01,2013-02-05 19:10:00,
2013-02-05 14:15:00,26.6,22.4,29.91,NE,40,2.0,2.0,84,0.00,,---,0.00,VWS V14.01,2013-02-05 19:15:00,
2013-02-05 14:20:00,26.6,22.4,29.91,NE,40,2.0,3.0,84,0.00,,---,0.00,VWS V14.01,2013-02-05 19:20:00,
2013-02-05 14:25:00,26.7,22.5,29.91,NE,40,0.0,1.0,84,0.00,,---,0.00,VWS V14.01,2013-02-05 19:25:00,
2013-02-05 14:30:00,26.7,22.5,29.91,NE,40,0.0,0.0,84,0.00,,---,0.00,VWS V14.01,2013-02-05 19:30:00,
2013-02-05 14:35:00,26.7,22.5,29.91,NE,40,2.0,3.0,84,0.00,,---,0.00,VWS V14.01,2013-02-05 19:35:00,
2013-02-05 14:40:00,26.8,22.6,29.90,NE,40,0.0,0.0,84,0.00,,---,0.00,VWS V14.01,2013-02-05 19:40:00,
2013-02-05 14:45:00,26.9,22.7,29.90,NE,40,2.0,4.0,84,0.00,,---,0.00,VWS V14.01,2013-02-05 19:45:00,
2013-02-05 14:50:00,26.9,22.7,29.90,NE,40,1.0,3.0,84,0.00,,---,0.00,VWS V14.01,2013-02-05 19:50:00,
2013-02-05 14:55:00,27.0,22.8,29.90,NE,40,1.0,1.0,84,0.00,,---,0.00,VWS V14.01,2013-02-05 19:55:00,
2013-02-05 15:00:00,26.9,22.7,29.89,NE,56,1.0,4.0,84,0.00,,---,0.00,VWS V14.01,2013-02-05 20:00:00,
2013-02-05 15:05:00,26.9,22.7,29.89,NE,55,0.0,0.0,84,0.00,,---,0.00,VWS V14.01,2013-02-05 20:05:00,
2013-02-05 15:10:00,27.0,22.8,29.89,ENE,57,0.0,5.0,84,0.00,,---,0.00,VWS V14.01,2013-02-05 20:10:00,
2013-02-05 15:15:00,27.0,22.8,29.88,ENE,57,1.0,2.0,84,0.00,,---,0.00,VWS V14.01,2013-02-05 20:15:00,
2013-02-05 15:20:00,27.1,22.9,29.88,ENE,57,1.0,3.0,84,0.00,,---,0.00,VWS V14.01,2013-02-05 20:20:00,
2013-02-05 15:25:00,27.0,22.8,29.88,ENE,57,0.0,2.0,84,0.00,,---,0.00,VWS V14.01,2013-02-05 20:25:00,
2013-02-05 15:30:00,27.0,22.8,29.88,ENE,57,3.0,4.0,84,0.00,,---,0.00,VWS V14.01,2013-02-05 20:30:00,
2013-02-05 15:35:00,27.0,23.1,29.88,ENE,57,1.0,3.0,85,0.00,,---,0.00,VWS V14.01,2013-02-05 20:35:00,
2013-02-05 15:40:00,27.0,23.1,29.88,ENE,57,0.0,4.0,85,0.00,,---,0.00,VWS V14.01,2013-02-05 20:40:00,
2013-02-05 15:45:00,27.0,23.1,29.88,ENE,57,0.0,1.0,85,0.00,,---,0.00,VWS V14.01,2013-02-05 20:45:00,
2013-02-05 15:50:00,27.0,23.1,29.87,ENE,57,1.0,3.0,85,0.00,,---,0.00,VWS V14.01,2013-02-05 20:50:00,
2013-02-05 15:55:00,27.0,23.1,29.87,ENE,57,0.0,1.0,85,0.00,,---,0.00,VWS V14.01,2013-02-05 20:55:00,
2013-02-05 16:00:00,27.0,23.1,29.87,ENE,57,0.0,0.0,85,0.00,,---,0.00,VWS V14.01,2013-02-05 21:00:00,
2013-02-05 16:05:00,27.0,23.1,29.87,ENE,58,1.0,3.0,85,0.00,,---,0.00,VWS V14.01,2013-02-05 21:05:00,
2013-02-05 16:10:00,27.0,23.1,29.87,ENE,58,2.0,2.0,85,0.00,,---,0.00,VWS V14.01,2013-02-05 21:10:00,
2013-02-05 16:15:00,27.0,23.1,29.87,ENE,59,4.0,5.0,85,0.00,,---,0.00,VWS V14.01,2013-02-05 21:15:00,
2013-02-05 16:20:00,26.9,23.0,29.87,ENE,60,3.0,4.0,85,0.00,,---,0.00,VWS V14.01,2013-02-05 21:20:00,
2013-02-05 16:25:00,26.9,23.0,29.88,ENE,60,1.0,4.0,85,0.00,,---,0.00,VWS V14.01,2013-02-05 21:25:00,
2013-02-05 16:30:00,26.9,23.0,29.88,ENE,60,1.0,2.0,85,0.00,,---,0.00,VWS V14.01,2013-02-05 21:30:00,
2013-02-05 16:35:00,27.0,23.4,29.88,ENE,60,1.0,3.0,86,0.00,,---,0.00,VWS V14.01,2013-02-05 21:35:00,
2013-02-05 16:40:00,27.0,23.1,29.88,ENE,60,0.0,2.0,85,0.00,,---,0.00,VWS V14.01,2013-02-05 21:40:00,
2013-02-05 16:45:00,27.0,23.1,29.88,ENE,60,1.0,2.0,85,0.00,,---,0.00,VWS V14.01,2013-02-05 21:45:00,
2013-02-05 16:50:00,27.0,23.1,29.88,ENE,60,0.0,1.0,85,0.00,,---,0.00,VWS V14.01,2013-02-05 21:50:00,
2013-02-05 16:55:00,26.9,23.0,29.88,ENE,60,0.0,1.0,85,0.00,,---,0.00,VWS V14.01,2013-02-05 21:55:00,
2013-02-05 17:00:00,26.9,23.0,29.88,ENE,60,1.0,1.0,85,0.00,,---,0.00,VWS V14.01,2013-02-05 22:00:00,
2013-02-05 17:05:00,27.0,23.4,29.88,ENE,60,2.0,2.0,86,0.00,,---,0.00,VWS V14.01,2013-02-05 22:05:00,
2013-02-05 17:10:00,26.9,23.3,29.88,ENE,60,0.0,0.0,86,0.00,,---,0.00,VWS V14.01,2013-02-05 22:10:00,
2013-02-05 17:15:00,26.9,23.3,29.88,ENE,60,0.0,0.0,86,0.00,,---,0.00,VWS V14.01,2013-02-05 22:15:00,
2013-02-05 17:20:00,26.9,23.3,29.88,ENE,60,1.0,1.0,86,0.00,,---,0.00,VWS V14.01,2013-02-05 22:20:00,
2013-02-05 17:25:00,26.8,23.2,29.88,ENE,60,0.0,3.0,86,0.00,,---,0.00,VWS V14.01,2013-02-05 22:25:00,
2013-02-05 17:30:00,26.7,23.4,29.88,ENE,60,0.0,0.0,87,0.00,,---,0.00,VWS V14.01,2013-02-05 22:30:00,
2013-02-05 17:35:00,26.7,23.4,29.88,ENE,60,0.0,0.0,87,0.00,,---,0.00,VWS V14.01,2013-02-05 22:35:00,
2013-02-05 17:40:00,26.6,23.3,29.88,ENE,60,2.0,3.0,87,0.00,,---,0.00,VWS V14.01,2013-02-05 22:40:00,
2013-02-05 17:45:00,26.6,23.3,29.88,ENE,60,0.0,0.0,87,0.00,,---,0.00,VWS V14.01,2013-02-05 22:45:00,
2013-02-05 17:50:00,26.5,23.2,29.88,ENE,60,2.0,3.0,87,0.00,,---,0.00,VWS V14.01,2013-02-05 22:50:00,
2013-02-05 17:55:00,26.5,23.2,29.88,ENE,60,1.0,2.0,87,0.00,,---,0.00,VWS V14.01,2013-02-05 22:55:00,
2013-02-05 18:00:00,26.5,23.4,29.88,ENE,60,3.0,3.0,88,0.00,,---,0.00,VWS V14.01,2013-02-05 23:00:00,
2013-02-05 18:05:00,26.5,23.4,29.88,ENE,60,0.0,3.0,88,0.00,,---,0.00,VWS V14.01,2013-02-05 23:05:00,
2013-02-05 18:10:00,26.4,23.3,29.88,ENE,60,1.0,3.0,88,0.00,,---,0.00,VWS V14.01,2013-02-05 23:10:00,
2013-02-05 18:15:00,26.4,23.3,29.88,ENE,60,1.0,3.0,88,0.00,,---,0.00,VWS V14.01,2013-02-05 23:15:00,
2013-02-05 18:20:00,26.3,23.2,29.87,ENE,60,2.0,3.0,88,0.00,,---,0.00,VWS V14.01,2013-02-05 23:20:00,
2013-02-05 18:25:00,26.3,23.2,29.87,ENE,60,1.0,4.0,88,0.00,,---,0.00,VWS V14.01,2013-02-05 23:25:00,
2013-02-05 18:30:00,26.3,23.2,29.88,ENE,60,0.0,1.0,88,0.00,,---,0.00,VWS V14.01,2013-02-05 23:30:00,
2013-02-05 18:35:00,26.3,23.2,29.88,ENE,60,3.0,3.0,88,0.00,,---,0.00,VWS V14.01,2013-02-05 23:35:00,
2013-02-05 18:40:00,26.3,23.2,29.88,ENE,60,0.0,0.0,88,0.00,,---,0.00,VWS V14.01,2013-02-05 23:40:00,
2013-02-05 18:45:00,26.2,23.1,29.88,ENE,60,0.0,0.0,88,0.00,,---,0.00,VWS V14.01,2013-02-05 23:45:00,
2013-02-05 18:50:00,26.2,23.1,29.88,ENE,60,2.0,4.0,88,0.00,,---,0.00,VWS V14.01,2013-02-05 23:50:00,
2013-02-05 18:55:00,26.2,23.1,29.88,ENE,59,3.0,3.0,88,0.00,,---,0.00,VWS V14.01,2013-02-05 23:55:00,
2013-02-05 19:00:00,26.2,23.1,29.88,ENE,59,0.0,0.0,88,0.00,,---,0.00,VWS V14.01,2013-02-06 00:00:00,
2013-02-05 19:05:00,26.2,23.1,29.88,ENE,59,2.0,3.0,88,0.00,,---,0.00,VWS V14.01,2013-02-06 00:05:00,
2013-02-05 19:10:00,26.3,23.2,29.88,NE,56,3.0,6.0,88,0.00,,---,0.00,VWS V14.01,2013-02-06 00:10:00,
2013-02-05 19:15:00,26.4,23.3,29.88,NE,56,0.0,2.0,88,0.00,,---,0.00,VWS V14.01,2013-02-06 00:15:00,
2013-02-05 19:20:00,26.5,23.4,29.88,NE,56,0.0,1.0,88,0.00,,---,0.00,VWS V14.01,2013-02-06 00:20:00,
2013-02-05 19:25:00,26.5,23.4,29.87,NE,50,1.0,2.0,88,0.00,,---,0.00,VWS V14.01,2013-02-06 00:25:00,
2013-02-05 19:30:00,26.6,23.5,29.87,NE,49,0.0,0.0,88,0.00,,---,0.00,VWS V14.01,2013-02-06 00:30:00,
2013-02-05 19:35:00,26.6,23.5,29.87,NE,49,2.0,2.0,88,0.00,,---,0.00,VWS V14.01,2013-02-06 00:35:00,
2013-02-05 19:40:00,26.7,23.6,29.87,NE,39,1.0,5.0,88,0.00,,---,0.00,VWS V14.01,2013-02-06 00:40:00,
2013-02-05 19:45:00,26.7,23.6,29.87,NE,42,1.0,4.0,88,0.00,,---,0.00,VWS V14.01,2013-02-06 00:45:00,
2013-02-05 19:50:00,26.8,23.7,29.87,NE,42,2.0,3.0,88,0.00,,---,0.00,VWS V14.01,2013-02-06 00:50:00,
2013-02-05 19:55:00,26.9,23.8,29.87,NE,40,1.0,2.0,88,0.00,,---,0.00,VWS V14.01,2013-02-06 00:55:00,
2013-02-05 20:00:00,27.0,23.9,29.87,NE,40,3.0,3.0,88,0.00,,---,0.00,VWS V14.01,2013-02-06 01:00:00,
2013-02-05 20:05:00,27.0,23.9,29.88,NE,40,0.0,0.0,88,0.00,,---,0.00,VWS V14.01,2013-02-06 01:05:00,
2013-02-05 20:10:00,27.1,24.0,29.87,NE,40,0.0,2.0,88,0.00,,---,0.00,VWS V14.01,2013-02-06 01:10:00,
2013-02-05 20:15:00,27.2,24.1,29.87,NE,40,4.0,4.0,88,0.00,,---,0.00,VWS V14.01,2013-02-06 01:15:00,
2013-02-05 20:20:00,27.2,24.1,29.87,NE,40,2.0,4.0,88,0.00,,---,0.00,VWS V14.01,2013-02-06 01:20:00,
2013-02-05 20:25:00,27.3,24.2,29.87,NE,40,3.0,4.0,88,0.00,,---,0.00,VWS V14.01,2013-02-06 01:25:00,
2013-02-05 20:30:00,27.3,24.2,29.87,North,5,0.0,2.0,88,0.00,,---,0.00,VWS V14.01,2013-02-06 01:30:00,
2013-02-05 20:35:00,27.4,24.3,29.87,North,5,2.0,3.0,88,0.00,,---,0.00,VWS V14.01,2013-02-06 01:35:00,
2013-02-05 20:40:00,27.5,24.4,29.87,North,5,0.0,2.0,88,0.00,,---,0.00,VWS V14.01,2013-02-06 01:40:00,
2013-02-05 20:45:00,27.5,24.4,29.87,North,5,3.0,3.0,88,0.00,,---,0.00,VWS V14.01,2013-02-06 01:45:00,
2013-02-05 20:50:00,27.5,24.4,29.87,North,5,0.0,2.0,88,0.00,,---,0.00,VWS V14.01,2013-02-06 01:50:00,
2013-02-05 20:55:00,27.5,24.4,29.87,North,11,0.0,1.0,88,0.00,,---,0.00,VWS V14.01,2013-02-06 01:55:00,
2013-02-05 21:00:00,27.5,24.4,29.87,North,11,3.0,4.0,88,0.00,,---,0.00,VWS V14.01,2013-02-06 02:00:00,
2013-02-05 21:05:00,27.5,24.4,29.86,North,11,0.0,2.0,88,0.00,,---,0.00,VWS V14.01,2013-02-06 02:05:00,
2013-02-05 21:10:00,27.4,24.3,29.87,NNE,12,3.0,3.0,88,0.00,,---,0.00,VWS V14.01,2013-02-06 02:10:00,
2013-02-05 21:15:00,27.5,24.4,29.87,NNE,26,2.0,3.0,88,0.00,,---,0.00,VWS V14.01,2013-02-06 02:15:00,
2013-02-05 21:20:00,27.6,24.5,29.86,NNE,28,1.0,3.0,88,0.00,,---,0.00,VWS V14.01,2013-02-06 02:20:00,
2013-02-05 21:25:00,27.6,24.5,29.86,NNE,28,0.0,0.0,88,0.00,,---,0.00,VWS V14.01,2013-02-06 02:25:00,
2013-02-05 21:30:00,27.6,24.5,29.86,NNE,28,3.0,4.0,88,0.00,,---,0.00,VWS V14.01,2013-02-06 02:30:00,
2013-02-05 21:35:00,27.7,24.6,29.86,NNE,28,2.0,3.0,88,0.00,,---,0.00,VWS V14.01,2013-02-06 02:35:00,
2013-02-05 21:40:00,27.8,24.7,29.86,NNE,28,2.0,5.0,88,0.00,,---,0.00,VWS V14.01,2013-02-06 02:40:00,
2013-02-05 21:45:00,27.8,24.7,29.86,NNE,30,3.0,3.0,88,0.00,,---,0.00,VWS V14.01,2013-02-06 02:45:00,
2013-02-05 21:50:00,27.9,24.8,29.86,NNE,30,1.0,3.0,88,0.00,,---,0.00,VWS V14.01,2013-02-06 02:50:00,
2013-02-05 21:55:00,27.9,24.8,29.87,NNE,30,4.0,4.0,88,0.00,,---,0.00,VWS V14.01,2013-02-06 02:55:00,
2013-02-05 22:00:00,28.0,24.9,29.86,NNE,30,2.0,4.0,88,0.00,,---,0.00,VWS V14.01,2013-02-06 03:00:00,
2013-02-05 22:05:00,28.0,24.9,29.87,NNE,30,4.0,5.0,88,0.00,,---,0.00,VWS V14.01,2013-02-06 03:05:00,
2013-02-05 22:10:00,28.0,24.9,29.86,NNE,30,1.0,3.0,88,0.00,,---,0.00,VWS V14.01,2013-02-06 03:10:00,
2013-02-05 22:15:00,28.0,24.9,29.86,NNE,30,1.0,3.0,88,0.00,,---,0.00,VWS V14.01,2013-02-06 03:15:00,
2013-02-05 22:20:00,28.1,25.0,29.86,NNE,30,2.0,4.0,88,0.00,,---,0.00,VWS V14.01,2013-02-06 03:20:00,
2013-02-05 22:25:00,28.1,25.0,29.86,NNE,27,6.0,6.0,88,0.00,,---,0.00,VWS V14.01,2013-02-06 03:25:00,
2013-02-05 22:30:00,28.1,25.0,29.86,NNE,22,4.0,4.0,88,0.00,,---,0.00,VWS V14.01,2013-02-06 03:30:00,
2013-02-05 22:35:00,28.1,25.0,29.86,NNE,12,2.0,5.0,88,0.00,,---,0.00,VWS V14.01,2013-02-06 03:35:00,
2013-02-05 22:40:00,28.1,25.0,29.86,North,5,2.0,7.0,88,0.00,,---,0.00,VWS V14.01,2013-02-06 03:40:00,
2013-02-05 22:45:00,28.1,25.0,29.86,North,360,4.0,5.0,88,0.00,,---,0.00,VWS V14.01,2013-02-06 03:45:00,
2013-02-05 22:50:00,27.9,24.8,29.86,North,355,4.0,5.0,88,0.00,,---,0.00,VWS V14.01,2013-02-06 03:50:00,
2013-02-05 22:55:00,27.9,24.8,29.86,North,355,2.0,4.0,88,0.00,,---,0.00,VWS V14.01,2013-02-06 03:55:00,
2013-02-05 23:00:00,27.9,24.8,29.86,North,360,2.0,3.0,88,0.00,,---,0.00,VWS V14.01,2013-02-06 04:00:00,
2013-02-05 23:05:00,27.8,24.7,29.85,North,360,4.0,5.0,88,0.00,,---,0.00,VWS V14.01,2013-02-06 04:05:00,
2013-02-05 23:10:00,27.8,24.7,29.85,North,360,4.0,5.0,88,0.00,,---,0.00,VWS V14.01,2013-02-06 04:10:00,
2013-02-05 23:15:00,27.8,24.7,29.85,North,360,1.0,4.0,88,0.00,,---,0.00,VWS V14.01,2013-02-06 04:15:00,
2013-02-05 23:20:00,27.9,24.8,29.85,North,360,4.0,5.0,88,0.00,,---,0.00,VWS V14.01,2013-02-06 04:20:00,
2013-02-05 23:25:00,27.9,24.8,29.85,North,360,3.0,3.0,88,0.00,,---,0.00,VWS V14.01,2013-02-06 04:25:00,
2013-02-05 23:30:00,27.9,24.8,29.85,North,360,1.0,1.0,88,0.00,,---,0.00,VWS V14.01,2013-02-06 04:30:00,
2013-02-05 23:35:00,28.0,24.9,29.86,North,360,1.0,3.0,88,0.00,,---,0.00,VWS V14.01,2013-02-06 04:35:00,
2013-02-05 23:40:00,28.0,24.9,29.86,North,360,2.0,4.0,88,0.00,,---,0.00,VWS V14.01,2013-02-06 04:40:00,
2013-02-05 23:45:00,28.1,25.0,29.85,North,360,1.0,2.0,88,0.00,,---,0.00,VWS V14.01,2013-02-06 04:45:00,
2013-02-05 23:50:00,28.1,25.0,29.85,North,360,4.0,5.0,88,0.00,,---,0.00,VWS V14.01,2013-02-06 04:50:00,
2013-02-05 23:55:00,28.1,25.0,29.85,North,360,5.0,5.0,88,0.00,,---,0.00,VWS V14.01,2013-02-06 04:55:00,